Location: Moscow
(55.7500°N, 37.5830°E)
Time: 05:15:33
(UTC+03:00)

Vanguard 1 - Pass Details

Date: 15 August 2022
Orbit: 649 x 3832 km, 34.2° (Epoch: 30 September)

Event Time Altitude Azimuth Distance (km) Brightness Sun altitude
Exits shadow 01:40:15 - 156° (SSE) 5,026 13.2 -18.8°
Reaches altitude 10° 01:42:11 10° 148° (SSE) 5,027 13.3 -18.7°
Maximum altitude 01:47:21 13° 127° (SE) 5,319 13.6 -18.4°
Drops below altitude 10° 01:53:22 10° 107° (ESE) 6,045 14.1 -18.2°
Sets 02:03:32 0° 85° (E) 7,683 15.0 -17.6°
